This demonstration page uses our WeatherBlox Daily Observations layout. Learn more.

Left ArrowRight Arrow

41.86663, -103.66717

Hourly Observations for June 17, 2021

Temp ( °F °C ) Dew Point ( °F °C ) Humidity (%) Winds ( mph kmh ) Pressure ( in mb ) Visibility ( mi km ) Precip ( " mm )
12:53 am 00:53 Clear 71 21.7 55 12.8 57 57 ESE 9 15 29.85 1011 10 16 N/A
1:53 am 01:53 Clear 69 20.6 56 13.3 63 63 E 8 13 29.85 1011 10 16 N/A
2:53 am 02:53 Clear 68 20 56 13.3 65 65 E 5 7 29.84 1011 10 16 N/A
3:53 am 03:53 Clear 66 18.9 56 13.3 70 70 ESE 5 7 29.84 1011 10 16 N/A
4:53 am 04:53 Clear 63 17.2 55 12.8 76 76 ENE 8 13 29.85 1011 10 16 N/A
5:53 am 05:53 Sunny 65 18.3 55 12.8 70 70 NE 6 9 29.85 1011 10 16 N/A
6:53 am 06:53 Sunny 69 20.6 56 13.3 63 63 ENE 7 11 29.85 1011 10 16 N/A
7:53 am 07:53 Sunny 74 23.3 56 13.3 54 54 ENE 8 13 29.87 1012 10 16 N/A
8:53 am 08:53 Sunny 77 25 56 13.3 48 48 ENE 5 7 29.87 1011 10 16 N/A
9:53 am 09:53 Sunny 79 26.1 55 12.8 44 44 VRB 3 6 29.87 1011 10 16 N/A
10:53 am 10:53 Sunny 84 28.9 55 12.8 37 37 VRB 5 7 29.85 1011 10 16 N/A
11:53 am 11:53 Sunny 87 30.6 53 11.7 31 31 VRB 3 6 29.84 1010 10 16 N/A
12:53 pm 12:53 Sunny 91 32.8 52 11.1 26 26 WNW 5 7 29.81 1010 10 16 N/A
1:53 pm 13:53 Sunny 96 35.6 50 10 21 21 VRB 6 9 29.78 1008 7 11 N/A
2:53 pm 14:53 Sunny 96 35.6 45 7.2 17 17 VRB 3 6 29.75 1007 10 16 N/A
3:53 pm 15:53 Sunny 100 37.8 43 6.1 14 14 SE 7 11 29.72 1006 10 16 N/A
4:53 pm 16:53 Sunny 101 38.3 44 6.7 14 14 E 10 17 29.71 1006 10 16 N/A
5:53 pm 17:53 Sunny 94 34.4 51 10.6 23 23 E 20 31 29.72 1006 10 16 N/A
6:53 pm 18:53 Sunny 91 32.8 52 11.1 26 26 E 17 28 29.72 1007 10 16 N/A
7:53 pm 19:53 Sunny 87 30.6 53 11.7 31 31 E 18 30 29.72 1006 10 16 N/A
8:53 pm 20:53 Clear 82 27.8 56 13.3 41 41 ENE 13 20 29.73 1007 10 16 N/A
9:53 pm 21:53 Clear 81 27.2 56 13.3 42 42 E 16 26 29.74 1007 10 16 N/A
10:53 pm 22:53 Clear 77 25 57 13.9 50 50 SSE 6 9 29.76 1008 10 16 N/A
11:53 pm 23:53 Clear 75 23.9 56 13.3 52 52 ESE 12 19 29.74 1007 10 16 N/A

Powered by AerisWeather